Portland, ME

9:52 PM EST on December 07, 2019 (GMT -0500)
Portland International

Weather History for KPWM - November, 2019

Change the Weather History Date:

Tuesday, November 12, 2019

  Actual Average Record
Temperature  
Mean Temperature 26 °F 41 °F  
Max Temperature 33 °F 49 °F 65 °F (1982)
Min Temperature 19 °F 32 °F 16 °F (1976)
Degree Days  
Heating Degree Days 39 24  
Month to date heating degree days 311 272  
Since 1 July heating degree days 874 996  
Cooling Degree Days 0 0  
Month to date cooling degree days 0 0  
Year to date cooling degree days 474 359  
Moisture  
Dew Point 25 °F    
Average Humidity 84    
Maximum Humidity 92    
Minimum Humidity 65    
Precipitation  
Precipitation 0.08 in 0.16 in 2.57 in (1947)
Month to date precipitation 0.96 2.01  
Year to date precipitation 41.92 40.31  
Snow  
Snow 0.30 in 0.00 in 6.30 in (1968)
Month to date snowfall 0.3 0.3  
Since 1 July snowfall 0.3 0.3  
Since 1 September snowfall 0.3 0.3  
Snow Depth T in    
Sea Level Pressure  
Sea Level Pressure 29.78 in    
Wind  
Wind Speed 7 mph ()    
Max Wind Speed 18 mph    
Max Gust Speed 24 mph    
Visibility 6.1 miles    
Events Fog , Rain , Snow    
T = Trace of Precipitation, MM = Missing Value Source: Averaged Metar Reports

Daily Weather History Graph

Daily Weather History Graph

Search for Another Location

Airport or City:

Astronomy

Nov. 12, 2019 Rise Set
Actual Time 6:31 AM EST 4:19 PM EST
Civil Twilight 6:00 AM EST 4:49 PM EST
Nautical Twilight 5:25 AM EST 5:24 PM EST
Astronomical Twilight 4:52 AM EST 5:58 PM EST
Moon 4:45 PM EST (11/12) 6:17 AM EST (11/12)
Length of Visible Light 10h 49m
Length of Day
9h 48m
Full, 100% of the Moon is Illuminated
Nov 12
Full
Nov 19
Last Quarter
Nov 26
New
Dec 4
First Quarter
Dec 12
Full

Hourly Weather History & Observations

Time (EST) Temp. Windchill Dew Point Humidity Pressure Visibility Wind Dir Wind Speed Gust Speed Precip Events Conditions
12:51 AM 30.9 °F 21.7 °F 28.0 °F 89% 29.96 in 7.0 mi North 11.5 mph - 0.00 in   Overcast
1:51 AM 30.0 °F 21.7 °F 27.0 °F 88% 29.89 in 10.0 mi NE 9.2 mph - N/A   Overcast
2:51 AM 30.0 °F 21.7 °F 27.0 °F 88% 29.85 in 10.0 mi North 9.2 mph - N/A   Overcast
3:51 AM 30.0 °F 22.4 °F 27.0 °F 88% 29.80 in 10.0 mi North 8.1 mph - N/A   Overcast
4:39 AM 30.0 °F 21.7 °F 28.0 °F 92% 29.78 in 7.0 mi North 9.2 mph - N/A   Overcast
4:51 AM 30.0 °F 22.4 °F 28.0 °F 92% 29.79 in 3.0 mi North 8.1 mph - N/A   Overcast
5:51 AM 30.0 °F 23.2 °F 27.0 °F 88% 29.76 in 3.0 mi North 6.9 mph - N/A   Overcast
6:51 AM 30.0 °F 25.2 °F 27.0 °F 88% 29.76 in 1.8 mi NNE 4.6 mph - N/A   Overcast
8:51 AM 30.0 °F - 28.0 °F 92% 29.71 in 1.5 mi Calm Calm - N/A   Overcast
9:33 AM 30.9 °F 24.3 °F 28.0 °F 89% 29.69 in 1.2 mi NW 6.9 mph - 0.00 in Rain Light Freezing Rain
9:51 AM 30.0 °F 21.1 °F 28.0 °F 92% 29.71 in 1.5 mi NW 10.4 mph - 0.01 in Rain Light Freezing Rain
10:39 AM 32.0 °F 26.4 °F 28.9 °F 88% 29.71 in 3.0 mi NW 5.8 mph - 0.01 in Rain Light Freezing Rain
10:51 AM 32.0 °F - 28.9 °F 88% 29.70 in 6.0 mi Calm Calm - 0.01 in Rain Light Freezing Rain
10:53 AM 32.0 °F 28.7 °F 28.9 °F 88% 29.69 in 7.0 mi NNW 3.5 mph - 0.00 in   Overcast
11:51 AM 33.1 °F 30.0 °F 28.9 °F 85% 29.68 in 7.0 mi West 3.5 mph - 0.00 in   Overcast
12:51 PM 33.1 °F 27.7 °F 30.0 °F 89% 29.69 in 10.0 mi West 5.8 mph - N/A   Overcast
1:03 PM 33.1 °F 27.7 °F 30.0 °F 89% 29.69 in 9.0 mi West 5.8 mph - 0.00 in   Light Ice Pellets
1:10 PM 33.1 °F 27.7 °F 30.0 °F 89% 29.69 in 3.0 mi West 5.8 mph - 0.00 in   Light Ice Pellets
1:11 PM 33.1 °F 28.7 °F 30.0 °F 89% 29.69 in 1.5 mi West 4.6 mph - 0.00 in Snow Light Snow
1:51 PM 33.1 °F 30.0 °F 30.9 °F 92% 29.71 in 2.0 mi WNW 3.5 mph - 0.02 in Snow Light Snow
2:08 PM 33.1 °F 30.0 °F 30.9 °F 92% 29.71 in 6.0 mi Variable 3.5 mph - 0.00 in   Overcast
2:41 PM 33.1 °F 26.9 °F 30.9 °F 92% 29.73 in 1.5 mi WNW 6.9 mph - 0.00 in Snow Light Snow
2:51 PM 33.1 °F 25.5 °F 30.0 °F 89% 29.74 in 1.5 mi West 9.2 mph - 0.01 in Snow Light Snow
3:22 PM 33.1 °F 23.9 °F 30.0 °F 89% 29.76 in 0.5 mi North 12.7 mph - 0.01 in Fog , Snow Snow
3:51 PM 30.0 °F 20.0 °F 26.1 °F 85% 29.77 in 4.0 mi NNW 12.7 mph - 0.03 in Snow Light Snow
4:51 PM 30.0 °F 21.1 °F 24.1 °F 79% 29.81 in 10.0 mi NNW 10.4 mph - 0.00 in   Overcast
5:51 PM 28.9 °F 19.8 °F 21.9 °F 75% 29.84 in 10.0 mi WNW 10.4 mph - N/A   Overcast
6:39 PM 27.0 °F 15.2 °F 18.0 °F 69% 29.86 in 10.0 mi WNW 15.0 mph - N/A   Scattered Clouds
6:51 PM 26.1 °F 14.5 °F 18.0 °F 71% 29.86 in 10.0 mi WNW 13.8 mph - N/A   Clear
7:51 PM 24.1 °F 13.1 °F 16.0 °F 71% 29.88 in 10.0 mi WNW 11.5 mph - N/A   Clear
8:51 PM 23.0 °F 10.1 °F 14.0 °F 68% 29.91 in 10.0 mi WNW 15.0 mph - N/A   Clear
9:51 PM 21.9 °F 11.7 °F 14.0 °F 72% 29.92 in 10.0 mi WNW 9.2 mph - N/A   Mostly Cloudy
10:51 PM 19.9 °F 10.1 °F 10.9 °F 68% 29.94 in 10.0 mi WNW 8.1 mph - N/A   Mostly Cloudy
11:51 PM 19.0 °F 6.8 °F 9.0 °F 65% 29.96 in 10.0 mi West 11.5 mph - N/A   Clear